"Datum/tijd (MEZT)";"astronomisch [cm]";"waterstand [cm]";"verwachte opzet";"verwachting RWS"
2024-05-02 13:00;-16;26;44;28
2024-05-02 13:10;-7;35;44;37
2024-05-02 13:20;2;45;43;45
2024-05-02 13:30;10;52;42;52
2024-05-02 13:40;18;59;41;59
2024-05-02 13:50;26;66;40;66
2024-05-02 14:00;34;72;38;72
2024-05-02 14:10;41;78;37;78
2024-05-02 14:20;47;83;36;83
2024-05-02 14:30;53;88;35;88
2024-05-02 14:40;58;92;34;92
2024-05-02 14:50;63;95;33;96
2024-05-02 15:00;67;99;33;100
2024-05-02 15:10;71;102;32;103
2024-05-02 15:20;74;104;31;105
2024-05-02 15:30;77;106;30;107
2024-05-02 15:40;79;106;29;108
2024-05-02 15:50;81;107;28;109
2024-05-02 16:00;82;108;27;109
2024-05-02 16:10;84;108;24;108
2024-05-02 16:20;84;108;23;107
2024-05-02 16:30;85;106;20;105
2024-05-02 16:40;85;104;18;103
2024-05-02 16:50;84;102;17;101
2024-05-02 17:00;83;100;16;99
2024-05-02 17:10;82;98;14;96
2024-05-02 17:20;79;94;13;92
2024-05-02 17:30;77;;11;88
2024-05-02 17:40;74;87;10;84
2024-05-02 17:50;70;82;9;79
2024-05-02 18:00;66;77;8;74
2024-05-02 18:10;62;71;6;68
2024-05-02 18:20;57;66;6;63
2024-05-02 18:30;53;60;4;57
2024-05-02 18:40;48;54;3;51
2024-05-02 18:50;42;48;4;46
2024-05-02 19:00;37;42;6;43
2024-05-02 19:10;31;36;6;37
2024-05-02 19:20;26;31;6;32
2024-05-02 19:30;20;25;7;27
2024-05-02 19:40;15;19;7;22
2024-05-02 19:50;9;14;7;16
2024-05-02 20:00;4;9;8;12
2024-05-02 20:10;-2;4;9;7
2024-05-02 20:20;-7;-1;9;2
2024-05-02 20:30;-12;-6;9;-3
2024-05-02 20:40;-17;-11;9;-8
2024-05-02 20:50;-22;-15;9;-13
2024-05-02 21:00;-27;-20;10;-17
2024-05-02 21:10;-32;-25;10;-22
2024-05-02 21:20;-37;-30;11;-26
2024-05-02 21:30;-41;-35;10;-31
2024-05-02 21:40;-46;-39;11;-35
2024-05-02 21:50;-50;-44;10;-40
2024-05-02 22:00;-55;-49;11;-44
2024-05-02 22:10;-59;-53;10;-49
2024-05-02 22:20;-64;-58;11;-53
2024-05-02 22:30;-68;-63;11;-57
2024-05-02 22:40;-72;-68;11;-61
2024-05-02 22:50;-76;-72;12;-64
2024-05-02 23:00;-79;-76;0;-79
2024-05-02 23:10;-83;-80;1;-82
2024-05-02 23:20;-86;-84;1;-85
2024-05-02 23:30;-89;-86;2;-87
2024-05-02 23:40;-91;-88;3;-88
2024-05-02 23:50;-92;-89;4;-88
2024-05-03 00:00;-92;-88;5;-87
2024-05-03 00:10;-92;-86;7;-85
2024-05-03 00:20;-91;-81;10;-81
2024-05-03 00:30;-89;-75;13;-76
2024-05-03 00:40;-86;-68;18;-68
2024-05-03 00:50;-82;-59;21;-61
2024-05-03 01:00;-78;-50;25;-53
2024-05-03 01:10;-73;-42;29;-44
2024-05-03 01:20;-67;-32;33;-34
2024-05-03 01:30;-61;-22;36;-25
2024-05-03 01:40;-54;-12;38;-16
2024-05-03 01:50;-47;-3;41;-6
2024-05-03 02:00;-40;7;42;2
2024-05-03 02:10;-33;16;45;12
2024-05-03 02:20;-26;24;46;20
2024-05-03 02:30;-19;32;45;26
2024-05-03 02:40;-12;38;44;32
2024-05-03 02:50;-6;45;45;39
2024-05-03 03:00;-1;50;47;46
2024-05-03 03:10;5;55;46;51
2024-05-03 03:20;9;60;46;55
2024-05-03 03:30;13;63;45;58
2024-05-03 03:40;17;65;45;62
2024-05-03 03:50;20;68;44;64
2024-05-03 04:00;23;70;44;67
2024-05-03 04:10;25;71;43;68
2024-05-03 04:20;27;71;42;69
2024-05-03 04:30;30;72;40;70
2024-05-03 04:40;31;72;39;70
2024-05-03 04:50;33;72;36;69
2024-05-03 05:00;35;72;33;68
2024-05-03 05:10;36;71;31;67
2024-05-03 05:20;38;70;28;66
2024-05-03 05:30;38;70;27;65
2024-05-03 05:40;39;70;26;65
2024-05-03 05:50;39;69;25;64
2024-05-03 06:00;39;68;24;63
2024-05-03 06:10;38;66;23;61
2024-05-03 06:20;37;65;22;59
2024-05-03 06:30;35;63;22;57
2024-05-03 06:40;33;60;21;54
2024-05-03 06:50;31;57;22;53
2024-05-03 07:00;28;54;23;51
2024-05-03 07:10;24;50;26;50
2024-05-03 07:20;21;46;25;46
2024-05-03 07:30;17;42;25;42
2024-05-03 07:40;12;37;25;37
2024-05-03 07:50;8;32;24;32
2024-05-03 08:00;4;28;24;28
2024-05-03 08:10;0;23;23;23
2024-05-03 08:20;-5;19;24;19
2024-05-03 08:30;-9;14;23;14
2024-05-03 08:40;-13;9;22;9
2024-05-03 08:50;-18;4;23;5
2024-05-03 09:00;-22;-1;22;0
2024-05-03 09:10;-26;-5;21;-5
2024-05-03 09:20;-30;-10;21;-9
2024-05-03 09:30;-35;-14;22;-13
2024-05-03 09:40;-39;-19;21;-18
2024-05-03 09:50;-43;-23;21;-22
2024-05-03 10:00;-47;-27;21;-26
2024-05-03 10:10;-51;-31;21;-30
2024-05-03 10:20;-55;-36;21;-34
2024-05-03 10:30;-59;-39;21;-38
2024-05-03 10:40;-63;-43;21;-42
2024-05-03 10:50;-67;-47;22;-45
2024-05-03 11:00;-71;-50;22;-49
2024-05-03 11:10;-74;-53;22;-52
2024-05-03 11:20;-77;-57;22;-55
2024-05-03 11:30;-80;-59;21;-59
2024-05-03 11:40;-83;-62;21;-62
2024-05-03 11:50;-84;-64;20;-64
2024-05-03 12:00;-86;-64;22;-64
2024-05-03 12:10;-86;-64;22;-64
2024-05-03 12:20;-85;-63;22;-63
2024-05-03 12:30;-84;-60;24;-60
2024-05-03 12:40;-82;-55;27;-55
2024-05-03 12:50;-78;-49;28;-50
2024-05-03 13:00;-74;-42;30;-44
2024-05-03 13:10;-70;-34;32;-38
2024-05-03 13:20;-64;-26;33;-31
2024-05-03 13:30;-58;-16;35;-23
2024-05-03 13:40;-52;-6;37;-15
2024-05-03 13:50;-44;4;37;-7
2024-05-03 14:00;-37;15;39;2
2024-05-03 14:10;-29;25;40;11
2024-05-03 14:20;-20;34;40;20
2024-05-03 14:30;-12;43;41;29
2024-05-03 14:40;-3;52;40;37
2024-05-03 14:50;5;59;41;46
2024-05-03 15:00;14;66;40;54
2024-05-03 15:10;22;73;40;62
2024-05-03 15:20;29;80;41;70
2024-05-03 15:30;37;85;40;77
2024-05-03 15:40;43;90;40;83
2024-05-03 15:50;49;94;40;89
2024-05-03 16:00;55;98;39;94
2024-05-03 16:10;60;101;38;98
2024-05-03 16:20;64;105;38;102
2024-05-03 16:30;69;108;37;106
2024-05-03 16:40;73;110;36;109
2024-05-03 16:50;76;112;35;111
2024-05-03 17:00;79;114;35;114
2024-05-03 17:10;82;116;35;117
2024-05-03 17:20;84;118;35;119
2024-05-03 17:30;86;119;34;120
2024-05-03 17:40;88;120;33;121
2024-05-03 17:50;88;121;34;122
2024-05-03 18:00;89;121;33;122
2024-05-03 18:10;88;121;33;121
2024-05-03 18:20;88;120;32;120
2024-05-03 18:30;86;119;32;118
2024-05-03 18:40;84;116;31;115
2024-05-03 18:50;82;114;28;110
2024-05-03 19:00;79;110;27;106
2024-05-03 19:10;76;105;26;102
2024-05-03 19:20;72;100;24;96
2024-05-03 19:30;68;95;23;91
2024-05-03 19:40;64;90;21;85
2024-05-03 19:50;59;84;21;80
2024-05-03 20:00;53;79;21;74
2024-05-03 20:10;48;73;21;69
2024-05-03 20:20;42;67;21;63
2024-05-03 20:30;36;61;22;58
2024-05-03 20:40;31;56;21;52
2024-05-03 20:50;25;50;21;46
2024-05-03 21:00;19;45;22;41
2024-05-03 21:10;14;39;21;35
2024-05-03 21:20;8;34;21;29
2024-05-03 21:30;3;29;21;24
2024-05-03 21:40;-3;24;21;18
2024-05-03 21:50;-8;19;20;12
2024-05-03 22:00;-13;13;20;7
2024-05-03 22:10;-18;7;21;3
2024-05-03 22:20;-23;2;21;-2
2024-05-03 22:30;-27;-3;20;-7
2024-05-03 22:40;-32;-7;20;-12
2024-05-03 22:50;-37;-13;20;-17
2024-05-03 23:00;-42;-18;20;-22
2024-05-03 23:10;-46;-23;20;-26
2024-05-03 23:20;-51;-28;19;-32
2024-05-03 23:30;-56;-33;20;-36
2024-05-03 23:40;-61;-38;20;-41
2024-05-03 23:50;-66;-43;21;-45
2024-05-04 00:00;-71;-48;20;-51
2024-05-04 00:10;-76;-53;22;-54
2024-05-04 00:20;-81;-58;22;-59
2024-05-04 00:30;-85;-62;22;-63
2024-05-04 00:40;-89;-67;21;-68
2024-05-04 00:50;-93;-71;20;-73
2024-05-04 01:00;-96;-76;19;-77
2024-05-04 01:10;-98;-79;17;-81
2024-05-04 01:20;-99;-83;15;-84
2024-05-04 01:30;-100;-85;14;-86
2024-05-04 01:40;-99;-87;12;-87
2024-05-04 01:50;-98;-87;11;-87
2024-05-04 02:00;-95;-84;11;-84
2024-05-04 02:10;-92;-80;14;-78
2024-05-04 02:20;-88;-74;16;-72
2024-05-04 02:30;-83;-66;19;-64
2024-05-04 02:40;-77;-57;22;-55
2024-05-04 02:50;-70;-49;22;-48
2024-05-04 03:00;-63;-39;24;-39
2024-05-04 03:10;-55;-30;25;-30
2024-05-04 03:20;-48;-20;28;-20
2024-05-04 03:30;-40;-12;29;-11
2024-05-04 03:40;-32;-3;29;-3
2024-05-04 03:50;-25;5;30;5
2024-05-04 04:00;-18;12;31;13
2024-05-04 04:10;-11;18;31;20
2024-05-04 04:20;-5;24;30;25
2024-05-04 04:30;0;29;32;32
2024-05-04 04:40;5;34;31;36
2024-05-04 04:50;10;38;31;41
2024-05-04 05:00;15;42;29;44
2024-05-04 05:10;19;45;29;48
2024-05-04 05:20;23;48;28;51
2024-05-04 05:30;26;50;27;53
2024-05-04 05:40;30;52;25;55
2024-05-04 05:50;33;54;24;57
2024-05-04 06:00;36;55;23;59
2024-05-04 06:10;39;56;21;60
2024-05-04 06:20;41;57;19;60
2024-05-04 06:30;43;57;18;61
2024-05-04 06:40;45;57;15;60
2024-05-04 06:50;46;58;13;59
2024-05-04 07:00;47;58;12;59
2024-05-04 07:10;47;58;12;59
2024-05-04 07:20;47;57;12;59
2024-05-04 07:30;46;56;12;58
2024-05-04 07:40;45;55;11;56
2024-05-04 07:50;43;53;11;54
2024-05-04 08:00;41;51;11;52
2024-05-04 08:10;38;49;11;49
2024-05-04 08:20;35;45;10;45
2024-05-04 08:30;31;42;10;41
2024-05-04 08:40;27;37;10;37
2024-05-04 08:50;23;33;10;33
2024-05-04 09:00;18;29;10;28
2024-05-04 09:10;14;24;9;23
2024-05-04 09:20;10;19;8;18
2024-05-04 09:30;5;15;9;14
2024-05-04 09:40;1;10;8;9
2024-05-04 09:50;-4;4;8;4
2024-05-04 10:00;-8;-1;7;-1
2024-05-04 10:10;-12;-6;6;-6
2024-05-04 10:20;-17;-11;6;-11
2024-05-04 10:30;-21;-16;6;-15
2024-05-04 10:40;-25;-21;5;-20
2024-05-04 10:50;-29;-26;5;-24
2024-05-04 11:00;-34;-31;5;-29
2024-05-04 11:10;-38;-35;5;-33
2024-05-04 11:20;-42;-39;4;-38
2024-05-04 11:30;-47;-44;5;-42
2024-05-04 11:40;-51;-49;4;-47
2024-05-04 11:50;-56;-53;5;-51
2024-05-04 12:00;-60;-57;4;-56
2024-05-04 12:10;-65;-62;5;-60
2024-05-04 12:20;-69;-66;5;-64
2024-05-04 12:30;-73;-71;5;-68
2024-05-04 12:40;-77;-75;5;-72
2024-05-04 12:50;-81;-79;5;-76
2024-05-04 13:00;-84;-84;5;-79
2024-05-04 13:10;-86;-88;4;-82
2024-05-04 13:20;-88;-91;2;-86
2024-05-04 13:30;-89;-94;0;-89
2024-05-04 13:40;-89;-96;-2;-91
2024-05-04 13:50;-89;-98;-3;-92
2024-05-04 14:00;-87;-97;-3;-90
2024-05-04 14:10;-85;-94;-3;-88
2024-05-04 14:20;-82;-89;-1;-83
2024-05-04 14:30;-78;-83;1;-77
2024-05-04 14:40;-73;-75;3;-70
2024-05-04 14:50;-67;-65;5;-62
2024-05-04 15:00;-60;-55;6;-54
2024-05-04 15:10;-52;-45;8;-44
2024-05-04 15:20;-43;-33;9;-34
2024-05-04 15:30;-34;-21;12;-22
2024-05-04 15:40;-25;-10;14;-11
2024-05-04 15:50;-15;2;15;0
2024-05-04 16:00;-5;14;16;11
2024-05-04 16:10;4;24;17;21
2024-05-04 16:20;14;34;16;30
2024-05-04 16:30;22;45;17;39
2024-05-04 16:40;31;53;16;47
2024-05-04 16:50;38;60;17;55
2024-05-04 17:00;46;67;15;61
2024-05-04 17:10;53;74;15;68
2024-05-04 17:20;59;81;15;74
2024-05-04 17:30;65;86;14;79
2024-05-04 17:40;70;91;14;84
2024-05-04 17:50;75;95;13;88
2024-05-04 18:00;80;99;12;92
2024-05-04 18:10;84;102;11;95
2024-05-04 18:20;88;105;10;98
2024-05-04 18:30;91;107;10;101
2024-05-04 18:40;93;110;10;103
2024-05-04 18:50;95;111;10;105
2024-05-04 19:00;97;112;10;107
2024-05-04 19:10;98;112;9;107
2024-05-04 19:20;98;108;9;107
2024-05-04 19:30;98;106;8;106
2024-05-04 19:40;97;105;7;104
2024-05-04 19:50;95;102;7;102
2024-05-04 20:00;93;99;5;98
2024-05-04 20:10;91;96;4;95
2024-05-04 20:20;87;91;4;91
2024-05-04 20:30;83;85;2;85
2024-05-04 20:40;79;80;1;80
2024-05-04 20:50;74;75;-1;73
2024-05-04 21:00;68;69;1;69
2024-05-04 21:10;63;63;0;63
2024-05-04 21:20;57;58;0;57
2024-05-04 21:30;50;52;1;51
2024-05-04 21:40;44;46;1;45
2024-05-04 21:50;38;39;2;40
2024-05-04 22:00;32;33;2;34
2024-05-04 22:10;26;27;1;27
2024-05-04 22:20;21;22;1;22
2024-05-04 22:30;15;16;2;17
2024-05-04 22:40;10;10;1;11
2024-05-04 22:50;5;5;0;5
2024-05-04 23:00;-1;0;1;0
2024-05-04 23:10;-6;-6;1;-5
2024-05-04 23:20;-11;-11;1;-10
2024-05-04 23:30;-16;-16;1;-15
2024-05-04 23:40;-21;-22;1;-20
2024-05-04 23:50;-26;-27;1;-25
2024-05-05 00:00;-31;-32;1;-30
2024-05-05 00:10;-36;-38;1;-35
2024-05-05 00:20;-42;-43;2;-40
2024-05-05 00:30;-48;-48;3;-45
2024-05-05 00:40;-54;-54;3;-51
2024-05-05 00:50;-60;-59;3;-57
2024-05-05 01:00;-66;-64;5;-61
2024-05-05 01:10;-72;-70;6;-66
2024-05-05 01:20;-78;-75;7;-71
2024-05-05 01:30;-85;-81;9;-76
2024-05-05 01:40;-90;-87;8;-82
2024-05-05 01:50;-96;-92;9;-87
2024-05-05 02:00;-100;-98;9;-91
2024-05-05 02:10;-104;-103;8;-96
2024-05-05 02:20;-108;-107;8;-100
2024-05-05 02:30;-110;-111;5;-105
2024-05-05 02:40;-111;-114;4;-107
2024-05-05 02:50;-111;-116;1;-110
2024-05-05 03:00;-111;-116;1;-110
2024-05-05 03:10;-108;-112;1;-107
2024-05-05 03:20;-105;-107;4;-101
2024-05-05 03:30;-100;-98;7;-93
2024-05-05 03:40;-94;-89;9;-85
2024-05-05 03:50;-87;-78;11;-76
2024-05-05 04:00;-79;-67;12;-67
2024-05-05 04:10;-71;-56;13;-58
2024-05-05 04:20;-62;-46;14;-48
2024-05-05 04:30;-52;-35;14;-38
2024-05-05 04:40;-43;-25;16;-27
2024-05-05 04:50;-34;-14;17;-17
2024-05-05 05:00;-26;-3;18;-8
2024-05-05 05:10;-18;6;20;2
2024-05-05 05:20;-10;15;21;11
2024-05-05 05:30;-3;23;21;18
2024-05-05 05:40;3;31;23;26
2024-05-05 05:50;9;37;24;33
2024-05-05 06:00;15;43;23;38
2024-05-05 06:10;20;48;23;43
2024-05-05 06:20;25;53;22;47
2024-05-05 06:30;29;57;22;51
2024-05-05 06:40;34;61;21;55
2024-05-05 06:50;38;65;21;59
2024-05-05 07:00;42;68;19;61
2024-05-05 07:10;45;71;19;64
2024-05-05 07:20;49;73;17;66
2024-05-05 07:30;51;74;17;68
2024-05-05 07:40;54;77;16;70
2024-05-05 07:50;56;80;15;71
2024-05-05 08:00;57;82;18;75
2024-05-05 08:10;58;82;17;75
2024-05-05 08:20;58;83;18;76
2024-05-05 08:30;58;84;18;76
2024-05-05 08:40;57;83;18;75
2024-05-05 08:50;55;81;19;74
2024-05-05 09:00;53;80;19;72
2024-05-05 09:10;50;78;19;69
2024-05-05 09:20;47;74;19;66
2024-05-05 09:30;43;70;19;62
2024-05-05 09:40;39;67;18;57
2024-05-05 09:50;35;62;18;53
2024-05-05 10:00;30;57;18;48
2024-05-05 10:10;25;52;17;42
2024-05-05 10:20;21;46;17;38
2024-05-05 10:30;16;41;17;33
2024-05-05 10:40;11;36;16;27
2024-05-05 10:50;7;30;16;23
2024-05-05 11:00;2;24;15;17
2024-05-05 11:10;-2;19;13;11
2024-05-05 11:20;-7;13;14;7
2024-05-05 11:30;-11;7;12;1
2024-05-05 11:40;-16;1;12;-4
2024-05-05 11:50;-20;-4;12;-8
2024-05-05 12:00;-25;-9;11;-14
2024-05-05 12:10;-29;-14;11;-18
2024-05-05 12:20;-34;-19;11;-23
2024-05-05 12:30;-39;-25;11;-28
2024-05-05 12:40;-44;-29;12;-32
2024-05-05 12:50;-50;-34;12;-38
2024-05-05 13:00;-55;-39;16;-39
2024-05-05 13:10;-60;-44;17;-43
2024-05-05 13:20;-66;-48;18;-48
2024-05-05 13:30;-71;-54;16;-55
2024-05-05 13:40;-76;-59;17;-59
2024-05-05 13:50;-81;-63;17;-64
2024-05-05 14:00;-85;-67;16;-69
2024-05-05 14:10;-89;-71;16;-73
2024-05-05 14:20;-93;-76;16;-77
2024-05-05 14:30;-96;-81;14;-82
2024-05-05 14:40;-98;-85;12;-86
2024-05-05 14:50;-100;-88;11;-89
2024-05-05 15:00;-100;-91;7;-93
2024-05-05 15:10;-100;-93;6;-94
2024-05-05 15:20;-98;-94;4;-94
2024-05-05 15:30;-95;-91;6;-89
2024-05-05 15:40;-90;-86;7;-83
2024-05-05 15:50;-85;-77;10;-75
2024-05-05 16:00;-77;-68;10;-67
2024-05-05 16:10;-69;-58;13;-56
2024-05-05 16:20;-60;-46;15;-45
2024-05-05 16:30;-49;-33;15;-34
2024-05-05 16:40;-38;-21;17;-21
2024-05-05 16:50;-27;-9;18;-9
2024-05-05 17:00;-16;5;19;3
2024-05-05 17:10;-5;19;20;15
2024-05-05 17:20;6;31;21;27
2024-05-05 17:30;16;41;21;37
2024-05-05 17:40;26;51;22;48
2024-05-05 17:50;35;60;23;58
2024-05-05 18:00;43;68;24;67
2024-05-05 18:10;51;76;24;75
2024-05-05 18:20;58;83;24;82
2024-05-05 18:30;65;91;24;89
2024-05-05 18:40;71;97;24;95
2024-05-05 18:50;77;102;23;100
2024-05-05 19:00;82;107;23;105
2024-05-05 19:10;87;111;22;109
2024-05-05 19:20;92;116;22;114
2024-05-05 19:30;95;120;23;118
2024-05-05 19:40;99;123;22;121
2024-05-05 19:50;102;125;22;124
2024-05-05 20:00;104;128;22;126
2024-05-05 20:10;105;129;23;128
2024-05-05 20:20;107;129;21;128
2024-05-05 20:30;107;128;20;127
2024-05-05 20:40;107;127;19;126
2024-05-05 20:50;106;125;18;124
2024-05-05 21:00;104;122;17;121
2024-05-05 21:10;101;118;16;117
2024-05-05 21:20;97;113;16;113
2024-05-05 21:30;93;108;15;108
2024-05-05 21:40;88;102;14;102
2024-05-05 21:50;83;95;14;97
2024-05-05 22:00;77;88;14;91
2024-05-05 22:10;70;81;14;84
2024-05-05 22:20;64;75;13;77
2024-05-05 22:30;58;68;12;70
2024-05-05 22:40;51;61;13;64
2024-05-05 22:50;45;55;12;57
2024-05-05 23:00;39;48;12;51
2024-05-05 23:10;33;42;12;45
2024-05-05 23:20;27;35;12;39
2024-05-05 23:30;21;29;12;33
2024-05-05 23:40;16;23;11;27
2024-05-05 23:50;11;17;10;21
2024-05-06 00:00;5;11;11;16
2024-05-06 00:10;0;6;8;8
2024-05-06 00:20;-5;0;8;3
2024-05-06 00:30;-10;-5;7;-3
2024-05-06 00:40;-15;-11;7;-8
2024-05-06 00:50;-21;-16;7;-14
2024-05-06 01:00;-26;-21;9;-17
2024-05-06 01:10;-32;-27;9;-23
2024-05-06 01:20;-38;-32;10;-28
2024-05-06 01:30;-44;-37;11;-33
2024-05-06 01:40;-51;-42;13;-38
2024-05-06 01:50;-57;-48;13;-44
2024-05-06 02:00;-64;-53;16;-48
2024-05-06 02:10;-71;-58;17;-54
2024-05-06 02:20;-78;-64;18;-60
2024-05-06 02:30;-85;-70;19;-66
2024-05-06 02:40;-91;-75;20;-71
2024-05-06 02:50;-97;-81;21;-76
2024-05-06 03:00;-103;-86;21;-82
2024-05-06 03:10;-108;-92;21;-87
2024-05-06 03:20;-112;-97;20;-92
2024-05-06 03:30;-116;-101;19;-97
2024-05-06 03:40;-118;-106;18;-100
2024-05-06 03:50;-119;-108;15;-104
2024-05-06 04:00;-119;-110;13;-106
2024-05-06 04:10;-117;-109;13;-104
2024-05-06 04:20;-113;-105;14;-99
2024-05-06 04:30;-107;-98;16;-91
2024-05-06 04:40;-100;-89;18;-82
2024-05-06 04:50;-92;-77;19;-73
2024-05-06 05:00;-83;-66;20;-63
2024-05-06 05:10;-72;-54;18;-54
2024-05-06 05:20;-62;-43;19;-43
2024-05-06 05:30;-51;-33;19;-32
2024-05-06 05:40;-41;-22;20;-21
2024-05-06 05:50;-31;-10;21;-10
2024-05-06 06:00;-22;0;21;-1
2024-05-06 06:10;-13;9;22;9
2024-05-06 06:20;-5;17;22;17
2024-05-06 06:30;2;25;24;26
2024-05-06 06:40;9;33;23;32
2024-05-06 06:50;15;39;23;38
2024-05-06 07:00;21;44;22;43
2024-05-06 07:10;27;49;21;48
2024-05-06 07:20;32;53;20;52
2024-05-06 07:30;37;57;20;57
2024-05-06 07:40;42;60;18;60
2024-05-06 07:50;47;63;17;64
2024-05-06 08:00;51;65;15;66
2024-05-06 08:10;54;67;15;69
2024-05-06 08:20;58;69;13;71
2024-05-06 08:30;61;71;12;73
2024-05-06 08:40;63;72;12;75
2024-05-06 08:50;65;74;11;76
2024-05-06 09:00;67;76;11;78
2024-05-06 09:10;68;77;11;79
2024-05-06 09:20;68;77;12;80
2024-05-06 09:30;68;78;11;79
2024-05-06 09:40;66;77;12;78
2024-05-06 09:50;64;76;12;76
2024-05-06 10:00;62;74;13;75
2024-05-06 10:10;59;71;11;70
2024-05-06 10:20;55;68;12;67
2024-05-06 10:30;50;63;12;62
2024-05-06 10:40;46;58;12;58
2024-05-06 10:50;41;53;11;52
2024-05-06 11:00;36;48;14;50
2024-05-06 11:10;31;42;13;44
2024-05-06 11:20;26;36;13;39
2024-05-06 11:30;21;30;12;33
2024-05-06 11:40;16;24;12;28
2024-05-06 11:50;12;18;10;22
2024-05-06 12:00;7;13;10;17
2024-05-06 12:10;2;8;9;11
2024-05-06 12:20;-3;1;8;5
2024-05-06 12:30;-8;-5;9;1
2024-05-06 12:40;-13;-10;8;-5
2024-05-06 12:50;-18;-14;8;-10
2024-05-06 13:00;-23;-19;8;-15
2024-05-06 13:10;-28;-25;7;-21
2024-05-06 13:20;-33;-29;7;-26
2024-05-06 13:30;-38;-34;6;-32
2024-05-06 13:40;-44;-40;7;-37
2024-05-06 13:50;-49;-45;8;-41
2024-05-06 14:00;-55;-50;8;-47
2024-05-06 14:10;-60;-55;9;-51
2024-05-06 14:20;-66;-60;9;-57
2024-05-06 14:30;-72;-66;9;-63
2024-05-06 14:40;-77;-71;9;-68
2024-05-06 14:50;-83;-77;10;-73
2024-05-06 15:00;-88;-82;9;-79
2024-05-06 15:10;-93;-88;9;-84
2024-05-06 15:20;-98;-94;9;-89
2024-05-06 15:30;-102;-99;9;-93
2024-05-06 15:40;-105;-103;7;-98
2024-05-06 15:50;-108;-108;7;-101
2024-05-06 16:00;-109;-111;3;-106
2024-05-06 16:10;-110;-112;3;-107
2024-05-06 16:20;-108;-111;1;-107
2024-05-06 16:30;-105;-106;2;-103
2024-05-06 16:40;-101;-98;5;-96
2024-05-06 16:50;-94;-89;7;-87
2024-05-06 17:00;-86;-79;11;-75
2024-05-06 17:10;-76;-67;11;-65
2024-05-06 17:20;-65;-53;11;-54
2024-05-06 17:30;-53;-40;10;-43
2024-05-06 17:40;-40;-28;10;-30
2024-05-06 17:50;-28;-15;11;-17
2024-05-06 18:00;-15;-1;10;-5
2024-05-06 18:10;-3;12;10;7
2024-05-06 18:20;8;24;11;19
2024-05-06 18:30;18;36;12;30
2024-05-06 18:40;28;46;13;41
2024-05-06 18:50;37;56;13;50
2024-05-06 19:00;46;64;13;59
2024-05-06 19:10;53;72;12;65
2024-05-06 19:20;61;80;12;73
2024-05-06 19:30;67;86;14;81
2024-05-06 19:40;74;92;13;87
2024-05-06 19:50;80;98;14;94
2024-05-06 20:00;85;102;14;99
2024-05-06 20:10;90;107;15;105
2024-05-06 20:20;95;113;15;110
2024-05-06 20:30;99;117;15;114
2024-05-06 20:40;103;120;14;117
2024-05-06 20:50;106;123;14;120
2024-05-06 21:00;108;126;15;123
2024-05-06 21:10;110;127;14;124
2024-05-06 21:20;112;127;12;124
2024-05-06 21:30;112;127;12;124
2024-05-06 21:40;111;127;12;123
2024-05-06 21:50;110;125;11;121
2024-05-06 22:00;108;123;11;119
2024-05-06 22:10;104;119;11;115
2024-05-06 22:20;100;115;10;110
2024-05-06 22:30;95;110;10;105
2024-05-06 22:40;90;104;9;99
2024-05-06 22:50;83;97;9;92
2024-05-06 23:00;77;90;9;86
2024-05-06 23:10;71;83;8;79
2024-05-06 23:20;64;76;8;72
2024-05-06 23:30;57;69;9;66
2024-05-06 23:40;51;62;7;58
2024-05-06 23:50;45;55;7;52
2024-05-07 00:00;38;49;8;46
2024-05-07 00:10;32;42;7;39
2024-05-07 00:20;26;36;7;33
2024-05-07 00:30;21;29;6;27
2024-05-07 00:40;15;23;6;21
2024-05-07 00:50;9;17;8;17
2024-05-07 01:00;4;12;8;12
2024-05-07 01:10;-1;6;7;6
2024-05-07 01:20;-6;1;7;1
2024-05-07 01:30;-12;-5;8;-4
2024-05-07 01:40;-17;-10;7;-10
2024-05-07 01:50;-23;-15;7;-16
2024-05-07 02:00;-28;-20;8;-20
2024-05-07 02:10;-34;-26;8;-26
2024-05-07 02:20;-40;-31;8;-32
2024-05-07 02:30;-46;-37;10;-36
2024-05-07 02:40;-52;-42;10;-42
2024-05-07 02:50;-59;-48;11;-48
2024-05-07 03:00;-65;-53;12;-53
2024-05-07 03:10;-72;-59;13;-59
2024-05-07 03:20;-78;-64;13;-65
2024-05-07 03:30;-85;-70;15;-70
2024-05-07 03:40;-91;-76;15;-76
2024-05-07 03:50;-98;-81;16;-82
2024-05-07 04:00;-104;-87;17;-87
2024-05-07 04:10;-109;-93;17;-92
2024-05-07 04:20;-114;-98;17;-97
2024-05-07 04:30;-118;-103;17;-101
2024-05-07 04:40;-120;-106;14;-106
2024-05-07 04:50;-120;-108;13;-107
2024-05-07 05:00;-119;-108;12;-107
2024-05-07 05:10;-115;-105;11;-104
2024-05-07 05:20;-110;-99;13;-97
2024-05-07 05:30;-102;-90;14;-88
2024-05-07 05:40;-93;-79;15;-78
2024-05-07 05:50;-83;-67;15;-68
2024-05-07 06:00;-72;-55;14;-58
2024-05-07 06:10;-60;-44;13;-47
2024-05-07 06:20;-49;-33;14;-35
2024-05-07 06:30;-37;-22;13;-24
2024-05-07 06:40;-27;-10;14;-13
2024-05-07 06:50;-17;1;15;-2
2024-05-07 07:00;-8;12;16;8
2024-05-07 07:10;0;20;17;17
2024-05-07 07:20;7;28;19;26
2024-05-07 07:30;14;35;19;33
2024-05-07 07:40;21;41;19;40
2024-05-07 07:50;27;46;20;47
2024-05-07 08:00;33;51;19;52
2024-05-07 08:10;38;56;19;57
2024-05-07 08:20;44;60;18;62
2024-05-07 08:30;48;64;17;65
2024-05-07 08:40;53;67;17;70
2024-05-07 08:50;57;69;16;73
2024-05-07 09:00;61;71;14;75
2024-05-07 09:10;65;74;13;78
2024-05-07 09:20;68;77;12;80
2024-05-07 09:30;71;79;11;82
2024-05-07 09:40;73;79;10;83
2024-05-07 09:50;75;81;11;86
2024-05-07 10:00;76;82;10;86
2024-05-07 10:10;76;83;11;87
2024-05-07 10:20;76;82;11;87
2024-05-07 10:30;74;81;11;85
2024-05-07 10:40;72;80;11;83
2024-05-07 10:50;69;78;12;81
2024-05-07 11:00;66;74;10;76
2024-05-07 11:10;62;71;11;73
2024-05-07 11:20;57;67;11;68
2024-05-07 11:30;53;61;8;61
2024-05-07 11:40;48;56;8;56
2024-05-07 11:50;42;51;9;51
2024-05-07 12:00;37;45;7;44
2024-05-07 12:10;32;38;7;39
2024-05-07 12:20;26;33;7;33
2024-05-07 12:30;21;27;6;27
2024-05-07 12:40;16;20;5;21
2024-05-07 12:50;10;14;6;16
2024-05-07 13:00;5;8;6;11
2024-05-07 13:10;-1;3;6;5
2024-05-07 13:20;-6;-3;6;0
2024-05-07 13:30;-12;-8;7;-5
2024-05-07 13:40;-17;-13;6;-11
2024-05-07 13:50;-22;-18;6;-16
2024-05-07 14:00;-27;-24;6;-21
2024-05-07 14:10;-32;-29;6;-26
2024-05-07 14:20;-37;-34;5;-32
2024-05-07 14:30;-43;;6;-37
2024-05-07 14:40;-48;-45;5;-43
2024-05-07 14:50;-53;-51;5;-48
2024-05-07 15:00;-58;-56;5;-53
2024-05-07 15:10;-64;-62;6;-58
2024-05-07 15:20;-69;-67;4;-65
2024-05-07 15:30;-75;-73;5;-70
2024-05-07 15:40;-80;-80;4;-76
2024-05-07 15:50;-86;-86;5;-81
2024-05-07 16:00;-92;-91;5;-87
2024-05-07 16:10;-97;-97;5;-92
2024-05-07 16:20;-103;-103;5;-98
2024-05-07 16:30;-107;-110;4;-103
2024-05-07 16:40;-112;-114;4;-108
2024-05-07 16:50;-114;-118;2;-112
2024-05-07 17:00;-116;-121;3;-113
2024-05-07 17:10;-116;-121;2;-114
2024-05-07 17:20;-113;-117;1;-112
2024-05-07 17:30;-109;-110;2;-107
2024-05-07 17:40;-102;-101;4;-98
2024-05-07 17:50;-94;-90;6;-88
2024-05-07 18:00;-83;-77;5;-78
2024-05-07 18:10;-71;-65;3;-68
2024-05-07 18:20;-59;-53;3;-56
2024-05-07 18:30;-46;-40;1;-45
2024-05-07 18:40;-32;-27;0;-32
2024-05-07 18:50;-20;-13;1;-19
2024-05-07 19:00;-7;0;0;-7
2024-05-07 19:10;4;12;1;5
2024-05-07 19:20;15;24;2;17
2024-05-07 19:30;24;35;3;27
2024-05-07 19:40;33;44;5;38
2024-05-07 19:50;42;53;5;47
2024-05-07 20:00;49;61;6;55
2024-05-07 20:10;57;68;7;64
2024-05-07 20:20;63;76;8;71
2024-05-07 20:30;70;82;8;78